Tracking 23764 objects as of 17-Oct-2021
HD Live streaming from Space Station
objects crossing your sky now

INTELSAT 3-F2

Track INTELSAT 3-F2 now!
INTELSAT 3-F2 is classified as:


NORAD ID: 3623
Int'l Code: 1968-116A
Perigee: 38,459.8 km
Apogee: 39,297.7 km
Inclination: 8.5 °
Period: 1,596.6 minutes
Semi major axis: 45249 km
RCS: 2.5118 m2 (large)
Launch date: December 19, 1968
Source: International Telecommunications Satellite Organization (ITSO)
Launch site: AIR FORCE EASTERN TEST RANGE (AFETR)
aabbcc
Your satellite tracking list
Your tracking list is empty




NASA's NSSDC Master Catalog

Two Line Element Set (TLE):
1 03623U 68116A   21289.54897412 -.00000128  00000-0  00000-0 0  9990
2 03623   8.4631 303.7533 0092589  53.0211 103.9549  0.90194195 67403
Source of the keplerian elements: AFSPC